Home   Weather   Florianópolis   Past weeks

Flag for Brazil Past Weather in Florianópolis, Santa Catarina, Brazil — Yesterday and Last 2 Weeks

73 °F

Partly sunny.

Feels Like: 73 °F
Forecast: N/A
Wind: 12 mph from North

Location: Florianopolis Aeroporto

Current Time: Oct 24, 2016 at 8:05:40 PM

Latest Report: Oct 24, 2016 at 7:00 PM

Visibility: N/A

Pressure: 29.95 "Hg

Humidity: 83%

Dew Point: 68 °F

Location of FlorianópolisLocation

Past Weather in Florianópolis — Graph


Florianópolis Temperature Yesterday

Maximum temperature yesterday: 79 °F (at 4:00 PM)
Minimum temperature yesterday: 64 °F (at 3:00 AM)
Average temperature yesterday: 71 °F

High & Low Weather Summary for the Past Weeks

High88 °F (Oct 20, 1:00 PM)100% (Oct 13, 10:00 AM)30.30 "Hg (Oct 13, 10:00 AM)
Low59 °F (Oct 10, 6:00 AM)44% (Oct 22, 12:00 PM)29.71 "Hg (Oct 13, 4:00 PM)
Average70 °F82%29.99 "Hg
* Reported Oct 9 6:00 PM — Oct 24 7:00 PM, Florianópolis, Weather by CustomWeather, © 2016

Note: Actual official high and low records may vary slightly from our data, if they occured in-between our weather recording intervals... More about our weather records


Florianópolis Weather History for the Previous 24 Hours

Scroll right to see more
Time TempWeatherWind HumidityBarometerVisibility
7:00 PM
Mon, Oct 24
73 °FPartly sunny.12 mph83%29.95 "HgN/A
6:00 PM73 °FPartly sunny.20 mph78%29.92 "HgN/A
5:00 PM75 °FPartly sunny.14 mph78%29.92 "HgN/A
3:00 PM77 °FPartly sunny.18 mph74%29.98 "HgN/A
2:00 PM77 °FPartly sunny.16 mph74%29.98 "HgN/A
1:00 PM77 °FPartly sunny.14 mph74%30.01 "HgN/A
12:00 PM77 °FPartly sunny.12 mph74%30.01 "HgN/A
11:00 AM75 °FPartly sunny.13 mph74%30.01 "HgN/A
10:00 AM75 °FPartly sunny.15 mph78%30.01 "HgN/A
9:00 AM73 °FPartly sunny.13 mph83%30.01 "HgN/A
8:00 AM72 °FPartly sunny.12 mph88%29.98 "HgN/A
7:00 AM72 °FPartly sunny.12 mph88%29.98 "HgN/A
6:00 AM70 °FPassing clouds.12 mph100%29.98 "HgN/A
5:00 AM70 °FPassing clouds.10 mph100%29.98 "HgN/A
4:00 AM70 °FPassing clouds.10 mph100%29.95 "HgN/A
3:00 AM70 °FPassing clouds.12 mph100%29.98 "HgN/A
2:00 AM72 °FPartly cloudy.12 mph94%30.01 "HgN/A
1:00 AM72 °FPartly cloudy.13 mph94%30.04 "HgN/A
12:00 AM72 °FPartly cloudy.13 mph88%30.04 "HgN/A
11:00 PM
Sun, Oct 23
72 °FPassing clouds.13 mph88%30.04 "HgN/A
10:00 PM72 °FPassing clouds.15 mph88%30.04 "HgN/A
9:00 PM72 °FPassing clouds.16 mph83%30.01 "HgN/A
8:00 PM72 °FPassing clouds.14 mph78%30.01 "HgN/A
Weather by CustomWeather, © 2016

See weather overviewHow to use our weather pages